Home   Weather   Newark   Past weeks
Flag for USA

Past Weather in Newark, New Jersey, USA — Yesterday and Last 2 Weeks

Now
38 °F

Partly sunny.


Feels Like: 27 °F
Forecast: 48 / 33 °F
Wind: 24 mph from Northwest

Location: Newark International Airport

Current Time: Mar 23, 2019 at 11:11:45 am

Latest Report: Mar 23, 2019 at 9:51 am


Visibility: 10 mi

Pressure: 29.82 "Hg

Humidity: 51%

Dew Point: 21 °F

Location of NewarkLocation

Past Weather in Newark — Graph

°F

Newark Temperature Yesterday

Maximum temperature yesterday: 49 °F (at 2:51 pm)
Minimum temperature yesterday: 40 °F (at 11:51 pm)
Average temperature yesterday: 44 °F

High & Low Weather Summary for the Past Weeks

 TemperatureHumidityPressure
High75 °F (Mar 15, 2:51 pm)97% (Mar 22, 1:51 am)30.44 "Hg (Mar 22, 1:51 am)
Low28 °F (Mar 8, 8:51 am)21% (Mar 19, 2:51 pm)29.29 "Hg (Mar 22, 4:51 am)
Average43 °F57%30.07 "Hg
* Reported Mar 8 8:51 am — Mar 23 9:51 am, Newark. Weather by CustomWeather, © 2019

Note: Actual official high and low records may vary slightly from our data, if they occured in-between our weather recording intervals... More about our weather records

Advertising

Newark Weather History for the Previous 24 Hours

Scroll right to see more
 ConditionsComfort  
Time TempWeatherWind HumidityBarometerVisibility
9:51 am
Sat, Mar 23
38 °FPartly sunny.24 mph51%29.82 "Hg10 mi
8:51 am37 °FPartly sunny.24 mph52%29.78 "Hg10 mi
7:51 am36 °FBroken clouds.22 mph57%29.75 "Hg10 mi
6:51 am35 °FPartly cloudy.17 mph56%29.72 "Hg10 mi
5:51 am35 °FMostly cloudy.25 mph54%29.69 "Hg10 mi
4:51 am35 °FOvercast.24 mph54%29.66 "Hg10 mi
3:51 am35 °FPartly cloudy.30 mph54%29.64 "Hg10 mi
2:51 am36 °FMostly cloudy.23 mph57%29.62 "Hg10 mi
1:51 am37 °FMostly cloudy.29 mph60%29.59 "Hg10 mi
12:51 am39 °FPartly cloudy.25 mph53%29.57 "Hg10 mi
11:51 pm
Fri, Mar 22
40 °FPassing clouds.22 mph60%29.55 "Hg10 mi
10:51 pm41 °FPassing clouds.24 mph60%29.53 "Hg10 mi
9:51 pm42 °FPassing clouds.17 mph60%29.53 "Hg10 mi
8:51 pm43 °FPassing clouds.14 mph56%29.50 "Hg10 mi
7:51 pm44 °FPassing clouds.20 mph55%29.48 "Hg10 mi
6:51 pm47 °FScattered clouds.18 mph46%29.44 "Hg10 mi
5:51 pm49 °FPartly sunny.21 mph43%29.41 "Hg10 mi
4:51 pm48 °FPartly sunny.21 mph44%29.39 "Hg10 mi
3:51 pm49 °FPartly sunny.23 mph44%29.38 "Hg10 mi
2:51 pm49 °FPartly sunny.25 mph50%29.38 "Hg10 mi
1:51 pm47 °FBroken clouds.25 mph61%29.38 "Hg10 mi
1:03 pm45 °FMore clouds than sun.25 mph68%29.39 "Hg10 mi
12:51 pm45 °FMostly cloudy.29 mph68%29.38 "Hg10 mi
11:51 am44 °FMostly cloudy.21 mph76%29.37 "Hg10 mi
Weather by CustomWeather, © 2019

See weather overview